User: anonymous   Login
Location: ?????? ??????
(44.3742°N, 135.2221°E)
Time: 00:09:02
(UTC+00:00)
Language:

Meteor 1-22 Rocket - Orbit

View from above orbital plane
View from above orbital plane
View from above satellite
View from above satellite

Ground track
Ground track

The orbit data is extracted from the following two-line orbital elements,

1 08294U 75087B   25189.56693248 -.00000141  00000-0 -84271-4 0  9992
2 08294  81.2097  33.2016 0102629  19.0293 341.4667 14.09033866559001
Epoch (UTC): 08 July 2025 13:36:22
Eccentricity: 0.0102629
inclination: 81.2097°
perigee height: 788 km
apogee height: 937 km
right ascension of ascending node: 33.2016°
argument of perigee: 19.0293°
revolutions per day: 14.09033866
mean anomaly at epoch: 341.4667°
orbit number at epoch: 55900

The dashed part of the orbit path shows where the satellite is in the earth's shadow,  

DLR